AQUA (27424 NORAD) Tracking and Keplerian Element Data

This shows tracking and keplerian element data for the satellite.

Feedback or suggestion? Click here.




ElementValue
Catalog27424
NameAQUA
Epoch Orbit86185
Epoch Day198.90759743
Epoch Year2018
RAAN139.6439
Inclination98.2036
Eccentricity0.0002064
Argument of Perigee19.8625
Mean Anonmoly28.3825
Mean Motion14.57078306
Decay Rate6.1E-07
L11 27424U 02022A 18198.90759743 .00000061 00000-0 23552-4 0 9994
L22 27424 98.2036 139.6439 0002064 19.8625 28.3825 14.57078306861854

Live tracking and technical data element details for AQUA (NORAD 27424). AQUA can be tracked NOW for your location showing map with azimuth and elevation plus other details from your city location.

Track the satellite on the map from your city or location and see movement details for azimuth, elevation, latitude, longitude, range, height, and movement on the map or in text.







IsCatalogInMostPopularTable: catalog: 27424, numindb: 26
Update: records affected: 1



GetName: 27424 AQUA

Hit Count: updated at: Thu, 19 Jul 2018 03:28:23 GMT